This is the latest recevied weather packets stored in our database for station/object OM2RC-6. If no packets are shown the sender has not sent any weather packets the latest 1 day(s).
| Time | Temp. | Humidity | Pressure | Rain* | Wind** | Luminosity | Snow |
|---|---|---|---|---|---|---|---|
| 1778010315 | 17.22° C | 84% | 1007.8 hPa | - | 4.02 m/s, 151° | - | - |
| 1778010001 | 17.22° C | 84% | 1007.8 hPa | - | 2.68 m/s, 156° | - | - |
| 1778009770 | 17.22° C | 83% | 1007.7 hPa | - | 4.92 m/s, 152° | - | - |
| 1778009357 | 17.22° C | 82% | 1007.8 hPa | - | 4.02 m/s, 143° | - | - |
| 1778009038 | 17.22° C | 82% | 1007.9 hPa | - | 3.13 m/s, 157° | - | - |
| 1778008719 | 17.22° C | 80% | 1007.9 hPa | - | 4.02 m/s, 162° | - | - |
| 1778008433 | 17.22° C | 80% | 1008.1 hPa | - | 2.24 m/s, 172° | - | - |
| 1778008081 | 17.22° C | 79% | 1007.9 hPa | - | 2.24 m/s, 164° | - | - |
| 1778007762 | 17.22° C | 78% | 1008.1 hPa | - | 2.68 m/s, 159° | - | - |
| 1778007443 | 17.22° C | 77% | 1008.1 hPa | - | 1.34 m/s, 163° | - | - |
| 1778007131 | 17.22° C | 76% | 1008 hPa | - | 1.34 m/s, 174° | - | - |
| 1778006805 | 17.22° C | 74% | 1007.9 hPa | - | 1.34 m/s, 191° | - | - |
| 1778006486 | 17.78° C | 73% | 1007.9 hPa | - | 2.24 m/s, 184° | - | - |
| 1778006167 | 17.78° C | 71% | 1007.8 hPa | - | 2.68 m/s, 163° | - | - |
| 1778005848 | 17.78° C | 69% | 1007.7 hPa | - | 4.47 m/s, 163° | - | - |
| 1778004890 | 18.33° C | 66% | 1007.7 hPa | - | 3.13 m/s, 144° | - | - |
| 1778004575 | 18.33° C | 63% | 1007.6 hPa | - | 3.13 m/s, 162° | - | - |
| 1778004314 | 18.33° C | 60% | 1007.8 hPa | - | 5.36 m/s, 151° | - | - |
| 1778003933 | 18.33° C | 59% | 1007.7 hPa | - | 3.13 m/s, 174° | - | - |
| 1778003614 | 18.89° C | 56% | 1007.7 hPa | - | 2.24 m/s, 174° | - | - |
| 1778003295 | 18.89° C | 55% | 1007.7 hPa | - | 2.68 m/s, 155° | - | - |
| 1778002976 | 18.89° C | 54% | 1007.7 hPa | - | 3.13 m/s, 154° | - | - |
| 1778002657 | 19.44° C | 54% | 1007.6 hPa | - | 2.24 m/s, 171° | - | - |
| 1778002338 | 19.44° C | 54% | 1007.7 hPa | - | 2.68 m/s, 157° | - | - |
| 1778001120 | 20.56° C | 50% | 1007.3 hPa | - | 4.92 m/s, 157° | - | - |
* Rain since midnight (hover to see other rain measurements)
** Current wind speed in m/s (hover to see current wind gust speed)